RYR17PM EPPO-EBCI

Flight info

Callsign RYR17PM
Flight time N/A
Altitude 36000
Route ELSUP Z181 XIGRI DCT ESIKA Z20 MAG DCT NEREL T855 BATTY
Aircraft B38M/M-SDE1FGHILORVWXY/HB1

Departure

Time N/A
Airport Poznań-Ławica Airport (EPPO)

Arrival

Time 2026-05-03 20:23
Airport Brussels South Charleroi Airport (EBCI)
Time Latitude Longitude Altitude Speed Heading
2026-05-03 20:15 50.59529 4.92114 6465 ft 247 kts 244°
2026-05-03 20:15 50.58814 4.89657 6339 ft 247 kts 244°
2026-05-03 20:15 50.58123 4.87216 6057 ft 244 kts 244°
2026-05-03 20:15 50.57431 4.84789 5728 ft 241 kts 244°
2026-05-03 20:16 50.57278 4.84255 5657 ft 239 kts 244°
2026-05-03 20:17 50.56724 4.82329 5395 ft 232 kts 244°
2026-05-03 20:17 50.56071 4.80059 5102 ft 224 kts 244°
2026-05-03 20:17 50.55430 4.77844 4815 ft 221 kts 244°
2026-05-03 20:18 50.54801 4.75672 4531 ft 213 kts 244°
2026-05-03 20:18 50.54211 4.73633 4273 ft 199 kts 244°
2026-05-03 20:18 50.53653 4.71705 3997 ft 188 kts 244°
2026-05-03 20:18 50.53132 4.69909 3764 ft 180 kts 243°
2026-05-03 20:19 50.52619 4.68142 3508 ft 175 kts 243°
2026-05-03 20:19 50.52141 4.66490 3289 ft 157 kts 242°
2026-05-03 20:19 50.51699 4.64967 3108 ft 152 kts 242°
2026-05-03 20:19 50.51262 4.63458 2891 ft 151 kts 242°
2026-05-03 20:20 50.50821 4.61941 2688 ft 154 kts 242°
2026-05-03 20:20 50.50377 4.60411 2479 ft 154 kts 242°
2026-05-03 20:20 50.49933 4.58882 2272 ft 154 kts 242°
2026-05-03 20:20 50.49482 4.57343 2048 ft 157 kts 244°
2026-05-03 20:21 50.49030 4.55778 1882 ft 156 kts 241°
2026-05-03 20:21 50.48587 4.54244 1655 ft 153 kts 241°
2026-05-03 20:21 50.48167 4.52790 1480 ft 139 kts 241°
2026-05-03 20:21 50.47770 4.51444 1320 ft 135 kts 242°
2026-05-03 20:22 50.47382 4.50110 1074 ft 135 kts 242°
2026-05-03 20:22 50.46986 4.48736 871 ft 138 kts 244°
2026-05-03 20:22 50.46587 4.47358 684 ft 139 kts 243°
2026-05-03 20:22 50.46205 4.46040 599 ft 113 kts 245°
2026-05-03 20:23 50.45977 4.45262 596 ft 45 kts 245°
2026-05-03 20:23 50.45883 4.44931 601 ft 19 kts 256°
2026-05-03 20:23 50.45948 4.44781 603 ft 19 kts 344°
2026-05-03 20:23 50.46050 4.44887 604 ft 20 kts 65°
2026-05-03 20:24 50.46111 4.45103 603 ft 23 kts 65°
2026-05-03 20:24 50.46177 4.45326 606 ft 23 kts 65°
2026-05-03 20:24 50.46247 4.45570 604 ft 25 kts 65°
2026-05-03 20:24 50.46324 4.45832 605 ft 28 kts 65°
2026-05-03 20:25 50.46409 4.46125 599 ft 30 kts 65°
2026-05-03 20:25 50.46501 4.46438 596 ft 33 kts 65°
2026-05-03 20:25 50.46586 4.46731 598 ft 15 kts 65°
2026-05-03 20:25 50.46665 4.46785 597 ft 16 kts 347°
2026-05-03 20:26 50.46737 4.46911 594 ft 14 kts 66°
2026-05-03 20:26 50.46769 4.47020 593 ft 2 kts 66°
2026-05-03 20:26 50.46771 4.47024 593 ft 1 kts 51°
2026-05-03 20:26 50.46806 4.47012 591 ft 7 kts 333°
2026-05-03 20:27 50.46830 4.46993 592 ft 1 kts 335°
2026-05-03 20:27 50.46840 4.46986 592 ft 1 kts 336°
2026-05-03 20:27 50.46841 4.46985 592 ft 0 kts 336°